owner,sensor,date,latitude,longitude,vertical_datum,mass_concentration_of_oxygen_in_sea_water,qcFlag 
SCCF RECON,ioos:station:SCCF:53:1,2009-02-01T00:00:00Z,26.6493,-81.8810,1.86,8.11,1111122 
SCCF RECON,ioos:station:SCCF:53:1,2009-02-01T01:00:00Z,26.6493,-81.8810,1.89,8.17,1111122 
SCCF RECON,ioos:station:SCCF:53:1,2009-02-01T02:00:00Z,26.6493,-81.8810,1.89,7.94,1111122 
SCCF RECON,ioos:station:SCCF:53:1,2009-02-01T03:00:00Z,26.6493,-81.8810,1.86,7.73,1111122 
SCCF RECON,ioos:station:SCCF:53:1,2009-02-01T04:00:00Z,26.6493,-81.8810,1.83,7.83,1111122 
SCCF RECON,ioos:station:SCCF:53:1,2009-02-01T05:00:00Z,26.6493,-81.8810,1.79,7.54,1111122 
SCCF RECON,ioos:station:SCCF:53:1,2009-02-01T06:00:00Z,26.6493,-81.8810,1.76,7.53,1111122 
SCCF RECON,ioos:station:SCCF:53:1,2009-02-01T07:00:00Z,26.6493,-81.8810,1.75,7.57,1111122 
SCCF RECON,ioos:station:SCCF:53:1,2009-02-01T08:00:00Z,26.6493,-81.8810,1.78,7.56,1111122 
SCCF RECON,ioos:station:SCCF:53:1,2009-02-01T09:00:00Z,26.6493,-81.8810,1.81,7.21,1111122 
SCCF RECON,ioos:station:SCCF:53:1,2009-02-01T10:00:00Z,26.6493,-81.8810,1.84,7.13,1111122 
SCCF RECON,ioos:station:SCCF:53:1,2009-02-01T11:00:00Z,26.6493,-81.8810,1.88,7.23,1111122 
SCCF RECON,ioos:station:SCCF:53:1,2009-02-01T12:00:00Z,26.6493,-81.8810,1.912,7.67,1111122 
SCCF RECON,ioos:station:SCCF:53:1,2009-02-01T13:00:00Z,26.6493,-81.8810,1.927,7.93,1111122 
SCCF RECON,ioos:station:SCCF:53:1,2009-02-01T14:00:00Z,26.6493,-81.8810,1.91,7.8,1111122 
SCCF RECON,ioos:station:SCCF:53:1,2009-02-01T15:00:00Z,26.6493,-81.8810,1.88,7.87,1111122 
SCCF RECON,ioos:station:SCCF:53:1,2009-02-01T16:00:00Z,26.6493,-81.8810,1.849,7.83,1111122 
SCCF RECON,ioos:station:SCCF:53:1,2009-02-01T17:00:00Z,26.6493,-81.8810,1.81,8.02,1111122 
SCCF RECON,ioos:station:SCCF:53:1,2009-02-01T18:00:00Z,26.6493,-81.8810,1.797,8.27,1111122 
SCCF RECON,ioos:station:SCCF:53:1,2009-02-01T19:00:00Z,26.6493,-81.8810,1.831,8.15,1111122 
SCCF RECON,ioos:station:SCCF:53:1,2009-02-01T20:00:00Z,26.6493,-81.8810,1.875,8.17,1111122 
SCCF RECON,ioos:station:SCCF:53:1,2009-02-01T21:00:00Z,26.6493,-81.8810,1.92,8.08,1111122 
SCCF RECON,ioos:station:SCCF:53:1,2009-02-01T22:00:00Z,26.6493,-81.8810,1.98,8.3,1111122 
SCCF RECON,ioos:station:SCCF:53:1,2009-02-01T23:00:00Z,26.6493,-81.8810,2.031,8.07,1111122 
SCCF RECON,ioos:station:SCCF:53:1,2009-02-02T00:00:00Z,26.6493,-81.8810,2.09,7.95,1111122 
SCCF RECON,ioos:station:SCCF:53:1,2009-02-02T01:00:00Z,26.6493,-81.8810,2.12,7.83,1111122 
SCCF RECON,ioos:station:SCCF:53:1,2009-02-02T02:00:00Z,26.6493,-81.8810,2.11,7.33,1111122 
SCCF RECON,ioos:station:SCCF:53:1,2009-02-02T03:00:00Z,26.6493,-81.8810,2.07,7.39,1111122 
SCCF RECON,ioos:station:SCCF:53:1,2009-02-02T04:00:00Z,26.6493,-81.8810,2.02,7.61,1111122 
SCCF RECON,ioos:station:SCCF:53:1,2009-02-02T05:00:00Z,26.6493,-81.8810,1.97,7.68,1111122 
SCCF RECON,ioos:station:SCCF:53:1,2009-02-02T06:00:00Z,26.6493,-81.8810,1.92,7.44,1111122 
SCCF RECON,ioos:station:SCCF:53:1,2009-02-02T07:00:00Z,26.6493,-81.8810,1.88,7.33,1111122 
SCCF RECON,ioos:station:SCCF:53:1,2009-02-02T08:00:00Z,26.6493,-81.8810,1.86,7.32,1111122 
SCCF RECON,ioos:station:SCCF:53:1,2009-02-02T09:00:00Z,26.6493,-81.8810,1.85,7.45,1111122 
SCCF RECON,ioos:station:SCCF:53:1,2009-02-02T10:00:00Z,26.6493,-81.8810,1.88,7.42,1111122 
SCCF RECON,ioos:station:SCCF:53:1,2009-02-02T11:00:00Z,26.6493,-81.8810,1.92,7.38,1111122 
SCCF RECON,ioos:station:SCCF:53:1,2009-02-02T12:00:00Z,26.6493,-81.8810,1.96,7.3,1111122 
SCCF RECON,ioos:station:SCCF:53:1,2009-02-02T13:00:00Z,26.6493,-81.8810,2.002,7.36,1111122 
SCCF RECON,ioos:station:SCCF:53:1,2009-02-02T14:00:00Z,26.6493,-81.8810,2.04,7.44,1111122 
SCCF RECON,ioos:station:SCCF:53:1,2009-02-02T15:00:00Z,26.6493,-81.8810,2.04,7.36,1111122 
SCCF RECON,ioos:station:SCCF:53:1,2009-02-02T16:00:00Z,26.6493,-81.8810,2.021,7.33,1111122 
SCCF RECON,ioos:station:SCCF:53:1,2009-02-02T17:00:00Z,26.6493,-81.8810,1.99,7.28,1111122 
SCCF RECON,ioos:station:SCCF:53:1,2009-02-02T18:00:00Z,26.6493,-81.8810,1.99,7.03,1111122 
SCCF RECON,ioos:station:SCCF:53:1,2009-02-02T19:00:00Z,26.6493,-81.8810,2.029,7.49,1111122 
SCCF RECON,ioos:station:SCCF:53:1,2009-02-02T20:00:00Z,26.6493,-81.8810,2.067,7.66,1111122 
SCCF RECON,ioos:station:SCCF:53:1,2009-02-02T21:00:00Z,26.6493,-81.8810,2.124,7.74,1111122 
SCCF RECON,ioos:station:SCCF:53:1,2009-02-02T22:00:00Z,26.6493,-81.8810,2.203,7.72,1111122 
SCCF RECON,ioos:station:SCCF:53:1,2009-02-02T23:00:00Z,26.6493,-81.8810,2.274,7.81,1111122 
SCCF RECON,ioos:station:SCCF:53:1,2009-02-03T00:00:00Z,26.6493,-81.8810,2.315,7.78,1111122 
SCCF RECON,ioos:station:SCCF:53:1,2009-02-03T01:00:00Z,26.6493,-81.8810,2.37,7.67,1111122 
SCCF RECON,ioos:station:SCCF:53:1,2009-02-03T02:00:00Z,26.6493,-81.8810,2.381,7.57,1111122 
SCCF RECON,ioos:station:SCCF:53:1,2009-02-03T03:00:00Z,26.6493,-81.8810,2.347,7.83,1111122 
SCCF RECON,ioos:station:SCCF:53:1,2009-02-03T04:00:00Z,26.6493,-81.8810,2.3,7.8,1111122 
SCCF RECON,ioos:station:SCCF:53:1,2009-02-03T05:00:00Z,26.6493,-81.8810,2.248,7.79,1111122 
SCCF RECON,ioos:station:SCCF:53:1,2009-02-03T06:00:00Z,26.6493,-81.8810,2.19,7.3,1111122 
SCCF RECON,ioos:station:SCCF:53:1,2009-02-03T07:00:00Z,26.6493,-81.8810,2.14,7.21,1111122 
SCCF RECON,ioos:station:SCCF:53:1,2009-02-03T08:00:00Z,26.6493,-81.8810,2.09,7.18,1111122 
SCCF RECON,ioos:station:SCCF:53:1,2009-02-03T09:00:00Z,26.6493,-81.8810,2.03,6.99,1111122 
SCCF RECON,ioos:station:SCCF:53:1,2009-02-03T10:00:00Z,26.6493,-81.8810,2.0,6.89,1111122 
SCCF RECON,ioos:station:SCCF:53:1,2009-02-03T11:00:00Z,26.6493,-81.8810,1.97,7.1,1111122 
SCCF RECON,ioos:station:SCCF:53:1,2009-02-03T12:00:00Z,26.6493,-81.8810,1.99,7.22,1111122 
SCCF RECON,ioos:station:SCCF:53:1,2009-02-03T13:00:00Z,26.6493,-81.8810,2.03,7.2,1111122 
SCCF RECON,ioos:station:SCCF:53:1,2009-02-03T14:00:00Z,26.6493,-81.8810,2.058,7.28,1111122 
SCCF RECON,ioos:station:SCCF:53:1,2009-02-03T15:00:00Z,26.6493,-81.8810,2.06,7.27,1111122 
SCCF RECON,ioos:station:SCCF:53:1,2009-02-03T16:00:00Z,26.6493,-81.8810,2.02,7.12,1111122 
SCCF RECON,ioos:station:SCCF:53:1,2009-02-03T17:00:00Z,26.6493,-81.8810,1.998,6.79,1111122 
SCCF RECON,ioos:station:SCCF:53:1,2009-02-03T18:00:00Z,26.6493,-81.8810,1.97,7.44,1111122 
SCCF RECON,ioos:station:SCCF:53:1,2009-02-03T19:00:00Z,26.6493,-81.8810,1.946,7.51,1111122 
SCCF RECON,ioos:station:SCCF:53:1,2009-02-03T20:00:00Z,26.6493,-81.8810,1.952,7.45,1111122 
SCCF RECON,ioos:station:SCCF:53:1,2009-02-03T21:00:00Z,26.6493,-81.8810,1.973,7.66,1111122 
SCCF RECON,ioos:station:SCCF:53:1,2009-02-03T22:00:00Z,26.6493,-81.8810,2.007,7.65,1111122 
SCCF RECON,ioos:station:SCCF:53:1,2009-02-03T23:00:00Z,26.6493,-81.8810,2.053,7.9,1111122 
SCCF RECON,ioos:station:SCCF:53:1,2009-02-04T00:00:00Z,26.6493,-81.8810,2.09,7.67,1111122 
SCCF RECON,ioos:station:SCCF:53:1,2009-02-04T01:00:00Z,26.6493,-81.8810,2.12,7.95,1111122 
SCCF RECON,ioos:station:SCCF:53:1,2009-02-04T02:00:00Z,26.6493,-81.8810,2.13,8.02,1111122 
SCCF RECON,ioos:station:SCCF:53:1,2009-02-04T03:00:00Z,26.6493,-81.8810,2.14,8.09,1111122 
SCCF RECON,ioos:station:SCCF:53:1,2009-02-04T04:00:00Z,26.6493,-81.8810,2.11,7.37,1111122 
SCCF RECON,ioos:station:SCCF:53:1,2009-02-04T05:00:00Z,26.6493,-81.8810,2.07,7.42,1111122 
SCCF RECON,ioos:station:SCCF:53:1,2009-02-04T06:00:00Z,26.6493,-81.8810,2.03,7.42,1111122 
SCCF RECON,ioos:station:SCCF:53:1,2009-02-04T07:00:00Z,26.6493,-81.8810,1.98,7.21,1111122 
SCCF RECON,ioos:station:SCCF:53:1,2009-02-04T08:00:00Z,26.6493,-81.8810,1.94,6.54,1111122 
SCCF RECON,ioos:station:SCCF:53:1,2009-02-04T09:00:00Z,26.6493,-81.8810,1.9,6.81,1111122 
SCCF RECON,ioos:station:SCCF:53:1,2009-02-04T10:00:00Z,26.6493,-81.8810,1.86,7.18,1111122 
SCCF RECON,ioos:station:SCCF:53:1,2009-02-04T11:00:00Z,26.6493,-81.8810,1.831,7.33,1111122 
SCCF RECON,ioos:station:SCCF:53:1,2009-02-04T12:00:00Z,26.6493,-81.8810,1.83,7.16,1111122 
SCCF RECON,ioos:station:SCCF:53:1,2009-02-04T13:00:00Z,26.6493,-81.8810,1.872,7.3,1111122 
SCCF RECON,ioos:station:SCCF:53:1,2009-02-04T14:00:00Z,26.6493,-81.8810,1.92,7.31,1111122 
SCCF RECON,ioos:station:SCCF:53:1,2009-02-04T15:00:00Z,26.6493,-81.8810,1.961,7.31,1111122 
SCCF RECON,ioos:station:SCCF:53:1,2009-02-04T16:00:00Z,26.6493,-81.8810,2.0,7.49,1111122 
SCCF RECON,ioos:station:SCCF:53:1,2009-02-04T17:00:00Z,26.6493,-81.8810,2.01,8.2,1111122 
SCCF RECON,ioos:station:SCCF:53:1,2009-02-04T18:00:00Z,26.6493,-81.8810,1.999,8.52,1111122 
SCCF RECON,ioos:station:SCCF:53:1,2009-02-04T19:00:00Z,26.6493,-81.8810,1.991,8.1,1111122 
SCCF RECON,ioos:station:SCCF:53:1,2009-02-04T20:00:00Z,26.6493,-81.8810,2.01,8.37,1111122 
SCCF RECON,ioos:station:SCCF:53:1,2009-02-04T21:00:00Z,26.6493,-81.8810,2.039,8.51,1111122 
SCCF RECON,ioos:station:SCCF:53:1,2009-02-04T22:00:00Z,26.6493,-81.8810,2.069,8.32,1111122 
SCCF RECON,ioos:station:SCCF:53:1,2009-02-04T23:00:00Z,26.6493,-81.8810,2.097,8.08,1111122 
SCCF RECON,ioos:station:SCCF:53:1,2009-02-05T00:00:00Z,26.6493,-81.8810,2.13,8.28,1111122 
SCCF RECON,ioos:station:SCCF:53:1,2009-02-05T01:00:00Z,26.6493,-81.8810,2.152,8.22,1111122 
SCCF RECON,ioos:station:SCCF:53:1,2009-02-05T02:00:00Z,26.6493,-81.8810,2.19,8.39,1111122 
SCCF RECON,ioos:station:SCCF:53:1,2009-02-05T03:00:00Z,26.6493,-81.8810,2.21,8.28,1111122 
SCCF RECON,ioos:station:SCCF:53:1,2009-02-05T04:00:00Z,26.6493,-81.8810,2.19,8.24,1111122 
SCCF RECON,ioos:station:SCCF:53:1,2009-02-05T05:00:00Z,26.6493,-81.8810,2.15,8.49,1111122 
SCCF RECON,ioos:station:SCCF:53:1,2009-02-05T06:00:00Z,26.6493,-81.8810,2.111,8.5,1111122 
SCCF RECON,ioos:station:SCCF:53:1,2009-02-05T07:00:00Z,26.6493,-81.8810,2.06,8.33,1111122 
SCCF RECON,ioos:station:SCCF:53:1,2009-02-05T08:00:00Z,26.6493,-81.8810,2.004,8.31,1111122 
SCCF RECON,ioos:station:SCCF:53:1,2009-02-05T09:00:00Z,26.6493,-81.8810,1.966,8.26,1111122 
SCCF RECON,ioos:station:SCCF:53:1,2009-02-05T10:00:00Z,26.6493,-81.8810,1.93,8.2,1111122 
SCCF RECON,ioos:station:SCCF:53:1,2009-02-05T11:00:00Z,26.6493,-81.8810,1.89,8.67,1111122 
SCCF RECON,ioos:station:SCCF:53:1,2009-02-05T12:00:00Z,26.6493,-81.8810,1.86,8.71,1111122 
SCCF RECON,ioos:station:SCCF:53:1,2009-02-05T13:00:00Z,26.6493,-81.8810,1.829,8.67,1111122 
SCCF RECON,ioos:station:SCCF:53:1,2009-02-05T14:00:00Z,26.6493,-81.8810,1.789,8.81,1111122 
SCCF RECON,ioos:station:SCCF:53:1,2009-02-05T15:00:00Z,26.6493,-81.8810,1.765,8.75,1111122 
SCCF RECON,ioos:station:SCCF:53:1,2009-02-05T16:00:00Z,26.6493,-81.8810,1.758,8.48,1111122 
SCCF RECON,ioos:station:SCCF:53:1,2009-02-05T17:00:00Z,26.6493,-81.8810,1.76,9.12,1111122 
SCCF RECON,ioos:station:SCCF:53:1,2009-02-05T18:00:00Z,26.6493,-81.8810,1.783,9.26,1111122 
SCCF RECON,ioos:station:SCCF:53:1,2009-02-05T19:00:00Z,26.6493,-81.8810,1.796,9.5,1111122 
SCCF RECON,ioos:station:SCCF:53:1,2009-02-05T20:00:00Z,26.6493,-81.8810,1.81,9.62,1111122 
SCCF RECON,ioos:station:SCCF:53:1,2009-02-05T21:00:00Z,26.6493,-81.8810,1.835,9.45,1111122 
SCCF RECON,ioos:station:SCCF:53:1,2009-02-05T22:00:00Z,26.6493,-81.8810,1.86,9.43,1111122 
SCCF RECON,ioos:station:SCCF:53:1,2009-02-05T23:00:00Z,26.6493,-81.8810,1.906,9.23,1111122 
SCCF RECON,ioos:station:SCCF:53:1,2009-02-06T00:00:00Z,26.6493,-81.8810,1.95,9.27,1111122 
SCCF RECON,ioos:station:SCCF:53:1,2009-02-06T01:00:00Z,26.6493,-81.8810,2.0,9.0,1111122 
SCCF RECON,ioos:station:SCCF:53:1,2009-02-06T02:00:00Z,26.6493,-81.8810,2.06,9.16,1111122 
SCCF RECON,ioos:station:SCCF:53:1,2009-02-06T03:00:00Z,26.6493,-81.8810,2.111,9.03,1111122 
SCCF RECON,ioos:station:SCCF:53:1,2009-02-06T04:00:00Z,26.6493,-81.8810,2.15,9.13,1111122 
SCCF RECON,ioos:station:SCCF:53:1,2009-02-06T05:00:00Z,26.6493,-81.8810,2.163,9.06,1111122 
SCCF RECON,ioos:station:SCCF:53:1,2009-02-06T06:00:00Z,26.6493,-81.8810,2.14,8.65,1111122 
SCCF RECON,ioos:station:SCCF:53:1,2009-02-06T07:00:00Z,26.6493,-81.8810,2.09,8.68,1111122 
SCCF RECON,ioos:station:SCCF:53:1,2009-02-06T08:00:00Z,26.6493,-81.8810,2.045,8.66,1111122 
SCCF RECON,ioos:station:SCCF:53:1,2009-02-06T09:00:00Z,26.6493,-81.8810,2.0,8.75,1111122 
SCCF RECON,ioos:station:SCCF:53:1,2009-02-06T10:00:00Z,26.6493,-81.8810,1.95,8.74,1111122 
SCCF RECON,ioos:station:SCCF:53:1,2009-02-06T11:00:00Z,26.6493,-81.8810,1.91,8.73,1111122 
SCCF RECON,ioos:station:SCCF:53:1,2009-02-06T12:00:00Z,26.6493,-81.8810,1.877,8.82,1111122 
SCCF RECON,ioos:station:SCCF:53:1,2009-02-06T13:00:00Z,26.6493,-81.8810,1.84,8.85,1111122 
SCCF RECON,ioos:station:SCCF:53:1,2009-02-06T14:00:00Z,26.6493,-81.8810,1.81,8.82,1111122 
SCCF RECON,ioos:station:SCCF:53:1,2009-02-06T15:00:00Z,26.6493,-81.8810,1.809,8.76,1111122 
SCCF RECON,ioos:station:SCCF:53:1,2009-02-06T16:00:00Z,26.6493,-81.8810,1.824,9.01,1111122 
SCCF RECON,ioos:station:SCCF:53:1,2009-02-06T17:00:00Z,26.6493,-81.8810,1.87,9.4,1111122 
SCCF RECON,ioos:station:SCCF:53:1,2009-02-06T18:00:00Z,26.6493,-81.8810,1.892,9.45,1111122 
SCCF RECON,ioos:station:SCCF:53:1,2009-02-06T19:00:00Z,26.6493,-81.8810,1.92,9.33,1111122 
SCCF RECON,ioos:station:SCCF:53:1,2009-02-06T20:00:00Z,26.6493,-81.8810,1.948,9.32,1111122 
SCCF RECON,ioos:station:SCCF:53:1,2009-02-06T21:00:00Z,26.6493,-81.8810,1.967,9.17,1111122 
SCCF RECON,ioos:station:SCCF:53:1,2009-02-06T22:00:00Z,26.6493,-81.8810,1.981,9.16,1111122 
SCCF RECON,ioos:station:SCCF:53:1,2009-02-06T23:00:00Z,26.6493,-81.8810,2.02,9.07,1111122 
SCCF RECON,ioos:station:SCCF:53:1,2009-02-07T00:00:00Z,26.6493,-81.8810,2.06,9.13,1111122 
SCCF RECON,ioos:station:SCCF:53:1,2009-02-07T01:00:00Z,26.6493,-81.8810,2.11,9.11,1111122 
SCCF RECON,ioos:station:SCCF:53:1,2009-02-07T02:00:00Z,26.6493,-81.8810,2.17,9.1,1111122 
SCCF RECON,ioos:station:SCCF:53:1,2009-02-07T03:00:00Z,26.6493,-81.8810,2.22,9.04,1111122 
SCCF RECON,ioos:station:SCCF:53:1,2009-02-07T04:00:00Z,26.6493,-81.8810,2.27,9.09,1111122 
SCCF RECON,ioos:station:SCCF:53:1,2009-02-07T05:00:00Z,26.6493,-81.8810,2.31,9.09,1111122 
SCCF RECON,ioos:station:SCCF:53:1,2009-02-07T06:00:00Z,26.6493,-81.8810,2.336,9.06,1111122 
SCCF RECON,ioos:station:SCCF:53:1,2009-02-07T07:00:00Z,26.6493,-81.8810,2.3,8.69,1111122 
SCCF RECON,ioos:station:SCCF:53:1,2009-02-07T08:00:00Z,26.6493,-81.8810,2.249,8.91,1111122 
SCCF RECON,ioos:station:SCCF:53:1,2009-02-07T09:00:00Z,26.6493,-81.8810,2.19,8.69,1111122 
SCCF RECON,ioos:station:SCCF:53:1,2009-02-07T10:00:00Z,26.6493,-81.8810,2.14,8.78,1111122 
SCCF RECON,ioos:station:SCCF:53:1,2009-02-07T11:00:00Z,26.6493,-81.8810,2.09,8.72,1111122 
SCCF RECON,ioos:station:SCCF:53:1,2009-02-07T12:00:00Z,26.6493,-81.8810,2.048,8.72,1111122 
SCCF RECON,ioos:station:SCCF:53:1,2009-02-07T13:00:00Z,26.6493,-81.8810,2.0,8.64,1111122 
SCCF RECON,ioos:station:SCCF:53:1,2009-02-07T14:00:00Z,26.6493,-81.8810,1.96,8.58,1111122 
SCCF RECON,ioos:station:SCCF:53:1,2009-02-07T15:00:00Z,26.6493,-81.8810,1.94,8.64,1111122 
SCCF RECON,ioos:station:SCCF:53:1,2009-02-07T16:00:00Z,26.6493,-81.8810,1.94,8.29,1111122 
SCCF RECON,ioos:station:SCCF:53:1,2009-02-07T17:00:00Z,26.6493,-81.8810,1.976,8.79,1111122 
SCCF RECON,ioos:station:SCCF:53:1,2009-02-07T18:00:00Z,26.6493,-81.8810,2.007,8.93,1111122 
SCCF RECON,ioos:station:SCCF:53:1,2009-02-07T19:00:00Z,26.6493,-81.8810,2.034,9.17,1111122 
SCCF RECON,ioos:station:SCCF:53:1,2009-02-07T20:00:00Z,26.6493,-81.8810,2.055,9.09,1111122 
SCCF RECON,ioos:station:SCCF:53:1,2009-02-07T21:00:00Z,26.6493,-81.8810,2.063,9.1,1111122 
SCCF RECON,ioos:station:SCCF:53:1,2009-02-07T22:00:00Z,26.6493,-81.8810,2.05,9.23,1111122 
SCCF RECON,ioos:station:SCCF:53:1,2009-02-07T23:00:00Z,26.6493,-81.8810,2.033,9.1,1111122 
SCCF RECON,ioos:station:SCCF:53:1,2009-02-08T00:00:00Z,26.6493,-81.8810,2.03,8.93,1111122 
SCCF RECON,ioos:station:SCCF:53:1,2009-02-08T01:00:00Z,26.6493,-81.8810,2.059,8.81,1111122 
SCCF RECON,ioos:station:SCCF:53:1,2009-02-08T02:00:00Z,26.6493,-81.8810,2.11,8.52,1111122 
SCCF RECON,ioos:station:SCCF:53:1,2009-02-08T03:00:00Z,26.6493,-81.8810,2.16,8.56,1111122 
SCCF RECON,ioos:station:SCCF:53:1,2009-02-08T04:00:00Z,26.6493,-81.8810,2.22,8.57,1111122 
SCCF RECON,ioos:station:SCCF:53:1,2009-02-08T05:00:00Z,26.6493,-81.8810,2.28,8.67,1111122 
SCCF RECON,ioos:station:SCCF:53:1,2009-02-08T06:00:00Z,26.6493,-81.8810,2.33,8.83,1111122 
SCCF RECON,ioos:station:SCCF:53:1,2009-02-08T07:00:00Z,26.6493,-81.8810,2.35,8.86,1111122 
SCCF RECON,ioos:station:SCCF:53:1,2009-02-08T08:00:00Z,26.6493,-81.8810,2.31,8.58,1111122 
SCCF RECON,ioos:station:SCCF:53:1,2009-02-08T09:00:00Z,26.6493,-81.8810,2.25,8.67,1111122 
SCCF RECON,ioos:station:SCCF:53:1,2009-02-08T10:00:00Z,26.6493,-81.8810,2.2,8.59,1111122 
SCCF RECON,ioos:station:SCCF:53:1,2009-02-08T11:00:00Z,26.6493,-81.8810,2.15,8.56,1111122 
SCCF RECON,ioos:station:SCCF:53:1,2009-02-08T12:00:00Z,26.6493,-81.8810,2.1,8.38,1111122 
SCCF RECON,ioos:station:SCCF:53:1,2009-02-08T13:00:00Z,26.6493,-81.8810,2.05,8.44,1111122 
SCCF RECON,ioos:station:SCCF:53:1,2009-02-08T14:00:00Z,26.6493,-81.8810,2.0,8.38,1111122 
SCCF RECON,ioos:station:SCCF:53:1,2009-02-08T15:00:00Z,26.6493,-81.8810,1.965,8.36,1111122 
SCCF RECON,ioos:station:SCCF:53:1,2009-02-08T16:00:00Z,26.6493,-81.8810,1.94,8.34,1111122 
SCCF RECON,ioos:station:SCCF:53:1,2009-02-08T17:00:00Z,26.6493,-81.8810,1.922,8.47,1111122 
SCCF RECON,ioos:station:SCCF:53:1,2009-02-08T18:00:00Z,26.6493,-81.8810,1.95,8.47,1111122 
SCCF RECON,ioos:station:SCCF:53:1,2009-02-08T19:00:00Z,26.6493,-81.8810,1.981,8.65,1111122 
SCCF RECON,ioos:station:SCCF:53:1,2009-02-08T20:00:00Z,26.6493,-81.8810,2.001,8.81,1111122 
SCCF RECON,ioos:station:SCCF:53:1,2009-02-08T21:00:00Z,26.6493,-81.8810,2.012,8.51,1111122 
SCCF RECON,ioos:station:SCCF:53:1,2009-02-08T22:00:00Z,26.6493,-81.8810,1.99,8.26,1111122 
SCCF RECON,ioos:station:SCCF:53:1,2009-02-08T23:00:00Z,26.6493,-81.8810,1.969,8.45,1111122 
SCCF RECON,ioos:station:SCCF:53:1,2009-02-09T00:00:00Z,26.6493,-81.8810,1.957,8.3,1111122 
SCCF RECON,ioos:station:SCCF:53:1,2009-02-09T01:00:00Z,26.6493,-81.8810,1.94,8.29,1111122 
SCCF RECON,ioos:station:SCCF:53:1,2009-02-09T02:00:00Z,26.6493,-81.8810,1.97,8.51,1111122 
SCCF RECON,ioos:station:SCCF:53:1,2009-02-09T03:00:00Z,26.6493,-81.8810,2.03,8.45,1111122 
SCCF RECON,ioos:station:SCCF:53:1,2009-02-09T04:00:00Z,26.6493,-81.8810,2.08,8.94,1111122 
SCCF RECON,ioos:station:SCCF:53:1,2009-02-09T05:00:00Z,26.6493,-81.8810,2.14,8.52,1111122 
SCCF RECON,ioos:station:SCCF:53:1,2009-02-09T06:00:00Z,26.6493,-81.8810,2.2,8.44,1111122 
SCCF RECON,ioos:station:SCCF:53:1,2009-02-09T07:00:00Z,26.6493,-81.8810,2.26,8.46,1111122 
SCCF RECON,ioos:station:SCCF:53:1,2009-02-09T08:00:00Z,26.6493,-81.8810,2.29,8.79,1111122 
SCCF RECON,ioos:station:SCCF:53:1,2009-02-09T09:00:00Z,26.6493,-81.8810,2.26,8.51,1111122 
SCCF RECON,ioos:station:SCCF:53:1,2009-02-09T10:00:00Z,26.6493,-81.8810,2.21,8.53,1111122 
SCCF RECON,ioos:station:SCCF:53:1,2009-02-09T11:00:00Z,26.6493,-81.8810,2.16,8.52,1111122 
SCCF RECON,ioos:station:SCCF:53:1,2009-02-09T12:00:00Z,26.6493,-81.8810,2.11,8.45,1111122 
SCCF RECON,ioos:station:SCCF:53:1,2009-02-09T13:00:00Z,26.6493,-81.8810,2.06,8.47,1111122 
SCCF RECON,ioos:station:SCCF:53:1,2009-02-09T14:00:00Z,26.6493,-81.8810,2.01,8.35,1111122 
SCCF RECON,ioos:station:SCCF:53:1,2009-02-09T15:00:00Z,26.6493,-81.8810,1.966,8.25,1111122 
SCCF RECON,ioos:station:SCCF:53:1,2009-02-09T16:00:00Z,26.6493,-81.8810,1.936,8.21,1111122 
SCCF RECON,ioos:station:SCCF:53:1,2009-02-09T17:00:00Z,26.6493,-81.8810,1.935,8.32,1111122 
SCCF RECON,ioos:station:SCCF:53:1,2009-02-09T18:00:00Z,26.6493,-81.8810,1.965,8.49,1111122 
SCCF RECON,ioos:station:SCCF:53:1,2009-02-09T19:00:00Z,26.6493,-81.8810,2.01,8.79,1111122 
SCCF RECON,ioos:station:SCCF:53:1,2009-02-09T20:00:00Z,26.6493,-81.8810,2.05,8.98,1111122 
SCCF RECON,ioos:station:SCCF:53:1,2009-02-09T21:00:00Z,26.6493,-81.8810,2.089,8.92,1111122 
SCCF RECON,ioos:station:SCCF:53:1,2009-02-09T22:00:00Z,26.6493,-81.8810,2.096,8.91,1111122 
SCCF RECON,ioos:station:SCCF:53:1,2009-02-09T23:00:00Z,26.6493,-81.8810,2.061,8.57,1111122 
SCCF RECON,ioos:station:SCCF:53:1,2009-02-10T00:00:00Z,26.6493,-81.8810,2.03,8.38,1111122 
SCCF RECON,ioos:station:SCCF:53:1,2009-02-10T01:00:00Z,26.6493,-81.8810,2.0,8.16,1111122 
SCCF RECON,ioos:station:SCCF:53:1,2009-02-10T02:00:00Z,26.6493,-81.8810,1.972,8.27,1111122 
SCCF RECON,ioos:station:SCCF:53:1,2009-02-10T03:00:00Z,26.6493,-81.8810,1.99,8.26,1111122 
SCCF RECON,ioos:station:SCCF:53:1,2009-02-10T04:00:00Z,26.6493,-81.8810,2.05,8.33,1111122 
SCCF RECON,ioos:station:SCCF:53:1,2009-02-10T05:00:00Z,26.6493,-81.8810,2.1,8.64,1111122 
SCCF RECON,ioos:station:SCCF:53:1,2009-02-10T06:00:00Z,26.6493,-81.8810,2.16,8.73,1111122 
SCCF RECON,ioos:station:SCCF:53:1,2009-02-10T07:00:00Z,26.6493,-81.8810,2.22,8.35,1111122 
SCCF RECON,ioos:station:SCCF:53:1,2009-02-10T08:00:00Z,26.6493,-81.8810,2.28,8.59,1111122 
SCCF RECON,ioos:station:SCCF:53:1,2009-02-10T09:00:00Z,26.6493,-81.8810,2.3,8.5,1111122 
SCCF RECON,ioos:station:SCCF:53:1,2009-02-10T10:00:00Z,26.6493,-81.8810,2.26,8.12,1111122 
SCCF RECON,ioos:station:SCCF:53:1,2009-02-10T11:00:00Z,26.6493,-81.8810,2.21,8.09,1111122 
SCCF RECON,ioos:station:SCCF:53:1,2009-02-10T12:00:00Z,26.6493,-81.8810,2.16,8.14,1111122 
SCCF RECON,ioos:station:SCCF:53:1,2009-02-10T13:00:00Z,26.6493,-81.8810,2.11,8.04,1111122 
SCCF RECON,ioos:station:SCCF:53:1,2009-02-10T14:00:00Z,26.6493,-81.8810,2.054,8.22,1111122 
SCCF RECON,ioos:station:SCCF:53:1,2009-02-10T15:00:00Z,26.6493,-81.8810,2.01,8.25,1111122 
SCCF RECON,ioos:station:SCCF:53:1,2009-02-10T16:00:00Z,26.6493,-81.8810,1.97,8.29,1111122 
SCCF RECON,ioos:station:SCCF:53:1,2009-02-10T17:00:00Z,26.6493,-81.8810,1.968,8.2,1111122 
SCCF RECON,ioos:station:SCCF:53:1,2009-02-10T18:00:00Z,26.6493,-81.8810,2.0,8.35,1111122 
SCCF RECON,ioos:station:SCCF:53:1,2009-02-10T19:00:00Z,26.6493,-81.8810,2.041,8.6,1111122 
SCCF RECON,ioos:station:SCCF:53:1,2009-02-10T20:00:00Z,26.6493,-81.8810,2.082,8.73,1111122 
SCCF RECON,ioos:station:SCCF:53:1,2009-02-10T21:00:00Z,26.6493,-81.8810,2.13,8.32,1111122 
SCCF RECON,ioos:station:SCCF:53:1,2009-02-10T22:00:00Z,26.6493,-81.8810,2.156,8.42,1111122 
SCCF RECON,ioos:station:SCCF:53:1,2009-02-10T23:00:00Z,26.6493,-81.8810,2.15,8.3,1111122 
SCCF RECON,ioos:station:SCCF:53:1,2009-02-11T00:00:00Z,26.6493,-81.8810,2.12,8.55,1111122 
SCCF RECON,ioos:station:SCCF:53:1,2009-02-11T01:00:00Z,26.6493,-81.8810,2.08,8.32,1111122 
SCCF RECON,ioos:station:SCCF:53:1,2009-02-11T02:00:00Z,26.6493,-81.8810,2.042,8.18,1111122 
SCCF RECON,ioos:station:SCCF:53:1,2009-02-11T03:00:00Z,26.6493,-81.8810,2.01,7.75,1111122 
SCCF RECON,ioos:station:SCCF:53:1,2009-02-11T04:00:00Z,26.6493,-81.8810,2.01,7.69,1111122 
SCCF RECON,ioos:station:SCCF:53:1,2009-02-11T05:00:00Z,26.6493,-81.8810,2.075,7.92,1111122 
SCCF RECON,ioos:station:SCCF:53:1,2009-02-11T06:00:00Z,26.6493,-81.8810,2.13,8.06,1111122 
SCCF RECON,ioos:station:SCCF:53:1,2009-02-11T07:00:00Z,26.6493,-81.8810,2.194,8.01,1111122 
SCCF RECON,ioos:station:SCCF:53:1,2009-02-11T08:00:00Z,26.6493,-81.8810,2.26,7.95,1111122 
SCCF RECON,ioos:station:SCCF:53:1,2009-02-11T09:00:00Z,26.6493,-81.8810,2.31,7.82,1111122 
SCCF RECON,ioos:station:SCCF:53:1,2009-02-11T10:00:00Z,26.6493,-81.8810,2.34,7.79,1111122 
SCCF RECON,ioos:station:SCCF:53:1,2009-02-11T11:00:00Z,26.6493,-81.8810,2.3,7.69,1111122 
SCCF RECON,ioos:station:SCCF:53:1,2009-02-11T12:00:00Z,26.6493,-81.8810,2.247,7.77,1111122 
SCCF RECON,ioos:station:SCCF:53:1,2009-02-11T13:00:00Z,26.6493,-81.8810,2.2,7.66,1111122 
SCCF RECON,ioos:station:SCCF:53:1,2009-02-11T14:00:00Z,26.6493,-81.8810,2.15,7.51,1111122 
SCCF RECON,ioos:station:SCCF:53:1,2009-02-11T15:00:00Z,26.6493,-81.8810,2.103,7.57,1111122 
SCCF RECON,ioos:station:SCCF:53:1,2009-02-11T16:00:00Z,26.6493,-81.8810,2.062,7.53,1111122 
SCCF RECON,ioos:station:SCCF:53:1,2009-02-11T17:00:00Z,26.6493,-81.8810,2.045,7.52,1111122 
SCCF RECON,ioos:station:SCCF:53:1,2009-02-11T18:00:00Z,26.6493,-81.8810,2.103,7.66,1111122 
SCCF RECON,ioos:station:SCCF:53:1,2009-02-11T19:00:00Z,26.6493,-81.8810,2.153,8.27,1111122 
SCCF RECON,ioos:station:SCCF:53:1,2009-02-11T20:00:00Z,26.6493,-81.8810,2.195,8.34,1111122 
SCCF RECON,ioos:station:SCCF:53:1,2009-02-11T21:00:00Z,26.6493,-81.8810,2.258,8.29,1111122 